When you browse on this site, cookies collect data to enhance your experience and personalize the content and advertising you see.
Visit our Privacy Policy to learn more. By continuing to use the site, you agree to this use of cookies and data.
  • In Portugal
  • List of Countries
  • For 7 days
  • Water Temperature
  • Satellite Maps
  • Weather Map
  • Weather Widgets
  • user-avatar
    Login

    Hourly Weather Verebki

    Today, 16 November, Friday

    Time Temperature Precipitation Wind Pressure Humidity
    00:00 +1°C° 0 mm 1 mps 764 mmHg 93%
    01:00 +1°C° 0 mm 1 mps 765 mmHg 93%
    02:00 +1°C° 0 mm 1 mps 765 mmHg 94%
    03:00 +1°C° 0 mm 1 mps 765 mmHg 94%
    04:00 +1°C° 0 mm 1 mps 766 mmHg 94%
    05:00 +1°C° 0 mm 1 mps 766 mmHg 94%
    06:00 +1°C° 0 mm 1 mps 766 mmHg 94%
    07:00 0°C° 0 mm 1 mps 766 mmHg 93%
    08:00 0°C° 0 mm 1 mps 767 mmHg 93%
    09:00 0°C° 0 mm 1 mps 767 mmHg 89%
    10:00 +1°C° 0 mm 1 mps 767 mmHg 86%
    11:00 +2°C° 0 mm 1 mps 768 mmHg 82%
    12:00 +2°C° 0 mm 1 mps 768 mmHg 81%
    13:00 +2°C° 0 mm 1 mps 768 mmHg 80%
    14:00 +3°C° 0 mm 1 mps 768 mmHg 80%
    15:00 +1°C° 0 mm 1 mps 768 mmHg 81%
    16:00 0°C° 0 mm 1 mps 768 mmHg 82%
    17:00 -1°C° 0 mm 1 mps 768 mmHg 83%
    18:00 -1°C° 0 mm 1 mps 768 mmHg 81%
    19:00 -1°C° 0 mm 1 mps 768 mmHg 79%
    20:00 -2°C° 0 mm 1 mps 768 mmHg 77%
    21:00 -2°C° 0 mm 1 mps 768 mmHg 75%
    22:00 -2°C° 0 mm 1 mps 768 mmHg 73%
    23:00 -2°C° 0 mm 1 mps 768 mmHg 71%

    Tomorrow, 17 November, Saturday

    Time Temperature Precipitation Wind Pressure Humidity
    00:00 -2°C° 0 mm 1 mps 768 mmHg 70%
    01:00 -2°C° 0 mm 1 mps 768 mmHg 68%
    02:00 -2°C° 0 mm 1 mps 768 mmHg 66%
    03:00 -2°C° 0 mm 1 mps 768 mmHg 65%
    04:00 -2°C° 0 mm 1 mps 768 mmHg 64%
    05:00 -2°C° 0 mm 1 mps 767 mmHg 62%
    06:00 -2°C° 0 mm 1 mps 767 mmHg 62%
    07:00 -2°C° 0 mm 1 mps 767 mmHg 61%
    08:00 -2°C° 0 mm 1 mps 767 mmHg 61%
    09:00 0°C° 0 mm 1 mps 767 mmHg 60%
    10:00 +1°C° 0 mm 1 mps 766 mmHg 59%
    11:00 +2°C° 0 mm 1 mps 766 mmHg 58%
    12:00 +1°C° 0 mm 2 mps 766 mmHg 60%
    13:00 +2°C° 0 mm 2 mps 765 mmHg 62%
    14:00 +2°C° 0 mm 2 mps 764 mmHg 63%
    15:00 +1°C° 0 mm 2 mps 764 mmHg 66%
    16:00 +1°C° 0 mm 2 mps 763 mmHg 68%
    17:00 0°C° 0 mm 3 mps 763 mmHg 71%
    18:00 -1°C° 0 mm 3 mps 762 mmHg 75%
    19:00 -1°C° 0 mm 3 mps 761 mmHg 78%
    20:00 -1°C° 0 mm 3 mps 761 mmHg 82%
    21:00 -1°C° 0 mm 3 mps 760 mmHg 85%
    22:00 -1°C° 0 mm 3 mps 759 mmHg 88%
    23:00 -1°C° 0 mm 4 mps 759 mmHg 91%

    Day after tomorrow, 18 November, Sunday

    Time Temperature Precipitation Wind Pressure Humidity
    00:00 -1°C° 0 mm 4 mps 758 mmHg 92%
    01:00 -1°C° 0 mm 4 mps 757 mmHg 92%
    02:00 0°C° 0 mm 4 mps 756 mmHg 93%
    03:00 0°C° 0.1 mm 4 mps 755 mmHg 93%
    04:00 0°C° 0.1 mm 4 mps 755 mmHg 94%
    05:00 0°C° 0.1 mm 4 mps 754 mmHg 94%
    06:00 0°C° 0.1 mm 4 mps 753 mmHg 95%
    07:00 0°C° 0.1 mm 4 mps 753 mmHg 95%
    08:00 0°C° 0.1 mm 4 mps 752 mmHg 95%
    09:00 +1°C° 0.1 mm 4 mps 752 mmHg 94%
    10:00 +1°C° 0.1 mm 4 mps 752 mmHg 94%
    11:00 +1°C° 0.1 mm 4 mps 752 mmHg 93%
    12:00 +1°C° 0.1 mm 4 mps 751 mmHg 93%
    13:00 +2°C° 0.1 mm 3 mps 751 mmHg 93%
    14:00 +2°C° 0.1 mm 3 mps 751 mmHg 93%
    15:00 +1°C° 0.2 mm 4 mps 751 mmHg 93%
    16:00 +1°C° 0.2 mm 4 mps 751 mmHg 93%
    17:00 +1°C° 0.2 mm 4 mps 751 mmHg 93%
    18:00 +1°C° 0.3 mm 4 mps 751 mmHg 91%
    19:00 0°C° 0.3 mm 5 mps 751 mmHg 89%
    20:00 0°C° 0.3 mm 5 mps 750 mmHg 87%
    21:00 0°C° 0.4 mm 5 mps 751 mmHg 88%
    22:00 0°C° 0.4 mm 5 mps 751 mmHg 88%
    23:00 0°C° 0.4 mm 4 mps 751 mmHg 89%

    19 November, Monday

    Time Temperature Precipitation Wind Pressure Humidity
    00:00 0°C° 0.2 mm 4 mps 751 mmHg 90%
    01:00 0°C° 0.2 mm 4 mps 751 mmHg 90%
    02:00 0°C° 0.2 mm 4 mps 751 mmHg 91%
    03:00 0°C° 0.1 mm 4 mps 752 mmHg 92%
    04:00 0°C° 0.1 mm 4 mps 752 mmHg 92%
    05:00 0°C° 0.1 mm 4 mps 752 mmHg 93%
    06:00 0°C° 0.1 mm 4 mps 752 mmHg 92%
    07:00 0°C° 0.1 mm 4 mps 752 mmHg 92%
    08:00 0°C° 0.1 mm 4 mps 752 mmHg 92%
    09:00 0°C° 0.2 mm 4 mps 753 mmHg 91%
    10:00 0°C° 0.2 mm 5 mps 753 mmHg 90%
    11:00 0°C° 0.2 mm 5 mps 753 mmHg 89%
    12:00 0°C° 0.3 mm 5 mps 753 mmHg 89%
    13:00 0°C° 0.3 mm 4 mps 753 mmHg 89%
    14:00 0°C° 0.3 mm 4 mps 753 mmHg 89%
    15:00 0°C° 0.2 mm 4 mps 754 mmHg 90%
    16:00 0°C° 0.2 mm 4 mps 754 mmHg 91%
    17:00 0°C° 0.2 mm 4 mps 754 mmHg 92%
    18:00 -1°C° 0.1 mm 4 mps 754 mmHg 92%
    19:00 -1°C° 0.1 mm 4 mps 754 mmHg 92%
    20:00 -1°C° 0.1 mm 4 mps 754 mmHg 92%
    21:00 0°C° 0.1 mm 3 mps 755 mmHg 92%
    22:00 0°C° 0.1 mm 3 mps 755 mmHg 92%
    23:00 0°C° 0.1 mm 3 mps 755 mmHg 93%

    20 November, Tuesday

    Time Temperature Precipitation Wind Pressure Humidity
    00:00 -1°C° 0.1 mm 3 mps 755 mmHg 92%
    01:00 -1°C° 0.1 mm 3 mps 755 mmHg 91%
    02:00 -1°C° 0.1 mm 3 mps 756 mmHg 91%
    03:00 -2°C° 0 mm 3 mps 756 mmHg 91%
    04:00 -4°C° 0 mm 3 mps 756 mmHg 90%
    05:00 -4°C° 0 mm 3 mps 756 mmHg 90%
    06:00 -5°C° 0 mm 3 mps 756 mmHg 90%
    07:00 -5°C° 0 mm 3 mps 756 mmHg 91%
    08:00 -6°C° 0 mm 3 mps 756 mmHg 91%
    09:00 -5°C° 0 mm 3 mps 756 mmHg 89%
    10:00 -4°C° 0 mm 3 mps 756 mmHg 87%
    11:00 -4°C° 0 mm 3 mps 756 mmHg 86%
    12:00 -2°C° 0 mm 3 mps 756 mmHg 86%
    13:00 -2°C° 0 mm 3 mps 755 mmHg 87%
    14:00 -2°C° 0 mm 3 mps 755 mmHg 87%
    15:00 -2°C° 0 mm 3 mps 755 mmHg 88%
    16:00 -2°C° 0 mm 3 mps 755 mmHg 89%
    17:00 -2°C° 0 mm 3 mps 755 mmHg 91%
    18:00 -2°C° 0 mm 3 mps 755 mmHg 91%
    19:00 -2°C° 0 mm 3 mps 755 mmHg 91%
    20:00 -2°C° 0 mm 3 mps 755 mmHg 91%
    21:00 -2°C° 0 mm 2 mps 755 mmHg 91%
    22:00 -3°C° 0 mm 2 mps 754 mmHg 91%
    23:00 -3°C° 0 mm 2 mps 754 mmHg 91%

    21 November, Wednesday

    Time Temperature Precipitation Wind Pressure Humidity
    00:00 -3°C° 0 mm 2 mps 754 mmHg 92%
    01:00 -3°C° 0 mm 2 mps 754 mmHg 92%
    02:00 -4°C° 0 mm 2 mps 754 mmHg 92%
    03:00 -4°C° 0 mm 2 mps 754 mmHg 92%
    04:00 -4°C° 0 mm 2 mps 753 mmHg 92%
    05:00 -4°C° 0 mm 2 mps 753 mmHg 93%
    06:00 -5°C° 0 mm 3 mps 753 mmHg 93%
    07:00 -5°C° 0 mm 3 mps 753 mmHg 92%
    08:00 -5°C° 0 mm 3 mps 753 mmHg 92%
    09:00 -4°C° 0 mm 3 mps 753 mmHg 91%
    10:00 -3°C° 0 mm 4 mps 753 mmHg 89%
    11:00 -2°C° 0 mm 4 mps 753 mmHg 87%
    12:00 -2°C° 0 mm 4 mps 753 mmHg 87%
    13:00 -2°C° 0 mm 4 mps 752 mmHg 87%
    14:00 -2°C° 0 mm 4 mps 752 mmHg 86%
    15:00 -2°C° 0 mm 4 mps 752 mmHg 88%
    16:00 -3°C° 0 mm 4 mps 751 mmHg 89%
    17:00 -4°C° 0 mm 5 mps 751 mmHg 90%
    18:00 -4°C° 0 mm 5 mps 751 mmHg 89%
    19:00 -4°C° 0 mm 5 mps 751 mmHg 89%
    20:00 -5°C° 0 mm 5 mps 751 mmHg 88%
    21:00 -5°C° 0 mm 5 mps 751 mmHg 88%
    22:00 -5°C° 0 mm 5 mps 751 mmHg 88%
    23:00 -5°C° 0 mm 5 mps 751 mmHg 88%
    Show more